STARLINK-35968, 66636

Orbit data source: Space-Track

STARLINK-35968, 66636 is a payload satellite owned by SpaceX/Seattle (US) in LEO that was launched on Sun, 23 Nov 2025 UTC via an FALCON 9 launch vehicle from the Air Force Western Test Range (AFWTR). Payload-class satellites include a variety of spacecraft equipped with specific instruments for various scientific and technological missions. These include communications satellites like Starlink; space stations such as the ISS; scientific satellites like the Hubble; Earth observation satellites from companies like Planet Labs, Umbra, and HawkEye 360; GPS; miniature CubeSats for education and research; and military/defense satellites.

Loading next visibility...
Identifier
66636, 2025-271V
Orbit
LEO
Country
Flag of USUS
Related business
Manufacturer
SpaceX/Seattle
Mission
Operational Commercial Communications
Bus & Motor
STARLINK V2MO, Unknown motor
Mass
575 kg wet, ~530 kg dry
Launch date (UTC)
2025-11-23 (2 months ago)
Launch vehicle
FALCON 9
Launch site
Air Force Western Test Range (AFWTR)
Object type
Payload
Rocket body
Debris
Shape & HBR
Box + 2 Pan, 17.7 m
Radar Cross Section
36.964 m²

Expand to show TLE details & history
Last TLE update: 5 hours ago

TLE from 5 hours ago
0 STARLINK-35968
1 66636U 25271V   26037.07489644  .00011206  00000-0  38997-3 0  9993
2 66636  53.1584 286.9754 0000808  55.4681 304.6396 15.30194269 12724
Epoch: 2026-02-06T01:47Z
TLE epoch observation values (Epoch: 2026-02-06T01:47:51.052Z)
Latitude
-0.00001°
Longitude
123.79469°
Altitude
475.817 km
Speed
7.629 km/s
True Right ascension
19h 07m 54s
True Declination
0° 00' 00"
Sunlit
Object was in daylight at epoch
Visualization orbit readout
Latitude
Unknown
Longitude
Unknown
Altitude
Unknown
Speed
Unknown
Apparent Right ascension
Unknown
Apparent Declination
Unknown
Sunlit
N/A
Visualization observer readout
Local Sidereal Time
09:05:09
Azimuth
Unknown
Elevation
Unknown
Doppler factor
Unknown
Orbital elements
Apogee altitude
476.043 km
Perigee altitude
474.935 km
Semi-major axis
6,853.626 km
Eccentricity
0.00008
Inclination
53.1584°
RAAN
286.9754°
Arg. of periapsis
55.4681°
True anomaly
304.63198°
Mean anomaly
304.6396°
Eccentric anomaly
304.63579°
Mean motion
3.82527 °/min
Orbital period
94.11 mins
BSTAR
0.00038997
Loading maneuver chart data...
Computing Atmospheric mass density...
Loading historical data...
Loading historical data...
Loading historical data...
Loading historical data...
Loading historical data...
Loading historical data...
Loading historical data...

Documentation

Showing up to 5 results
|